FW8612 Weather Reports


Display with metric or nautical units.
time (UTC)temp
F
wind
direction
speed
MPH
gust
MPH
rain 1hr
in
rain 24hr
in
rain mn
in
humidity
%
barometer
mb
20260505083057 44 0 0.0 0.0 0.00 0.00 0.00 90 1016.4
20260505081608 45 0 0.0 0.0 0.00 0.00 0.00 89 1016.3
20260505080104 45 0 0.0 0.0 0.00 0.00 0.00 88 1016.1
20260505074554 46 0 0.0 0.0 0.00 0.00 0.00 88 1016.3
20260505073053 46 0 0.0 0.0 0.00 0.00 0.00 87 1016.1
20260505071555 47 0 0.0 0.0 0.00 0.00 0.00 86 1016.3
20260505070101 47 0 0.0 0.0 0.00 0.00 0.00 85 1016.3
20260505064556 48 0 0.0 0.0 0.00 0.00 0.00 85 1016.3
20260505063053 48 0 0.0 0.0 0.00 0.00 0.00 84 1016.4
20260505061558 49 0 0.0 0.0 0.00 0.00 0.00 83 1016.5
20260505060058 49 0 0.0 0.0 0.00 0.00 0.00 83 1016.6
20260505054558 49 359 0.0 0.0 0.00 0.00 0.00 82 1016.5
20260505053102 50 0 0.0 0.0 0.00 0.00 0.00 82 1016.7
20260505051552 50 0 0.0 0.0 0.00 0.00 0.00 80 1016.6
20260505041556 54 0 0.0 0.0 0.00 0.00 0.00 71 1016.5
20260505040055 56 0 0.0 0.0 0.00 0.00 0.00 67 1016.5
20260505034552 57 0 0.0 0.0 0.00 0.00 0.00 66 1016.5
20260505033054 57 0 0.0 0.0 0.00 0.00 0.00 65 1016.6
20260505031552 58 0 0.0 0.0 0.00 0.00 0.00 64 1016.8
20260505030053 59 0 0.0 0.0 0.00 0.00 0.00 61 1016.8
20260505024553 60 0 0.0 0.0 0.00 0.00 0.00 59 1016.6
20260505023058 60 0 0.0 0.0 0.00 0.00 0.00 58 1016.6
20260505021554 61 0 0.0 0.0 0.00 0.00 0.00 57 1016.4
20260505020056 61 0 0.0 0.0 0.00 0.00 0.00 56 1016.3
20260505014552 62 0 0.0 0.0 0.00 0.00 0.00 55 1016.1
20260505013055 62 0 0.0 0.0 0.00 0.00 0.00 54 1015.9
20260505011555 63 0 0.0 0.0 0.00 0.00 0.00 54 1015.7
20260505010103 63 0 0.0 3.0 0.00 0.00 0.00 53 1015.7
20260505004555 64 142 0.0 1.0 0.00 0.00 0.00 52 1015.6
20260505003059 65 0 0.0 1.0 0.00 0.00 0.00 51 1015.4
20260505001553 66 172 0.0 1.0 0.00 0.00 0.00 51 1015.2
20260505000111 67 0 1.0 2.0 0.00 0.00 0.00 49 1015.3
20260504234555 67 161 0.0 2.0 0.00 0.00 0.00 48 1015.1
20260504233054 68 0 0.0 4.0 0.00 0.00 0.00 47 1015.0
20260504231554 69 236 0.0 4.0 0.00 0.00 0.00 45 1015.0
20260504230051 70 0 0.0 3.0 0.00 0.00 0.00 44 1014.9
20260504224559 71 0 1.0 4.0 0.00 0.00 0.00 42 1014.7
20260504223057 72 0 1.0 4.0 0.00 0.00 0.00 41 1014.8
20260504221556 72 201 1.0 4.0 0.00 0.00 0.00 40 1014.8
20260504220115 72 182 1.0 5.0 0.00 0.00 0.00 39 1014.8
20260504214559 72 0 1.0 4.0 0.00 0.00 0.00 37 1014.7
20260504213101 72 193 1.0 5.0 0.00 0.00 0.00 35 1014.9
20260504211558 72 207 0.0 4.0 0.00 0.00 0.00 34 1015.0
20260504210101 72 115 2.0 5.0 0.00 0.00 0.00 33 1014.9
20260504204555 71 252 0.0 3.0 0.00 0.00 0.00 37 1015.0
20260504203054 71 47 0.0 4.0 0.00 0.00 0.00 36 1015.1
20260504201554 71 89 1.0 3.0 0.00 0.00 0.00 34 1015.2
20260504200059 71 0 0.0 0.0 0.00 0.00 0.00 38 1015.4
20260504194553 71 63 0.0 1.0 0.00 0.00 0.00 34 1015.6
20260504193052 72 0 0.0 1.0 0.00 0.00 0.00 35 1015.8
20260504191557 72 0 0.0 0.0 0.00 0.00 0.00 36 1016.0
20260504190107 72 356 0.0 4.0 0.00 0.00 0.00 33 1016.0
20260504184611 72 127 1.0 4.0 0.00 0.00 0.00 35 1016.1
20260504183104 72 0 0.0 5.0 0.00 0.00 0.00 36 1016.3
20260504181556 72 0 0.0 2.0 0.00 0.00 0.00 38 1016.4
20260504180054 71 191 1.0 4.0 0.00 0.00 0.00 40 1016.5
20260504174552 71 104 2.0 4.0 0.00 0.00 0.00 39 1016.6
20260504173106 71 283 0.0 2.0 0.00 0.00 0.00 39 1016.9
20260504171556 70 0 0.0 1.0 0.00 0.00 0.00 39 1017.0
20260504170105 69 0 0.0 0.0 0.00 0.00 0.00 42 1017.2
20260504120107 38 0 0.0 0.0 0.00 0.00 0.00 91 1018.5